Spokane, WA

3:35 PM PDT on May 21, 2018 (GMT -0700)
Spokane International

Weather History for KGEG - February, 2014

Change the Weather History Date:

Wednesday, February 19, 2014

  Actual Average Record
Temperature  
Mean Temperature 35 °F 34 °F  
Max Temperature 41 °F 41 °F 61 °F (1958)
Min Temperature 28 °F 26 °F -13 °F (1882)
Degree Days  
Heating Degree Days 30 32  
Month to date heating degree days 757 622  
Since 1 July heating degree days 4715 4555  
Cooling Degree Days 0 0  
Month to date cooling degree days 0 0  
Year to date cooling degree days 0 0  
Moisture  
Dew Point 22 °F    
Average Humidity 61    
Maximum Humidity 85    
Minimum Humidity 37    
Precipitation  
Precipitation 0.00 in 0.05 in 0.78 in (1884)
Month to date precipitation 1.35 0.89  
Year to date precipitation 2.36 2.68  
Snow  
Snow 0.00 in 0.30 in 11.00 in (1993)
Month to date snowfall 8.4 5.0  
Since 1 July snowfall 22.3 38.5  
Snow Depth 0.00 in    
Sea Level Pressure  
Sea Level Pressure 29.92 in    
Wind  
Wind Speed 19 mph (WSW)    
Max Wind Speed 32 mph    
Max Gust Speed 39 mph    
Visibility 10 miles    
Events      
T = Trace of Precipitation, MM = Missing Value Source: NWS Daily Summary

Daily Weather History Graph

Daily Weather History Graph

Search for Another Location

Airport or City:

Astronomy

Feb. 19, 2014 Rise Set
Actual Time 6:48 AM PST 5:19 PM PST
Civil Twilight 6:17 AM PST 5:51 PM PST
Nautical Twilight 5:41 AM PST 6:27 PM PST
Astronomical Twilight 5:05 AM PST 7:02 PM PST
Moon 10:42 PM PST (2/19) 8:35 AM PST (2/19)
Length of Visible Light 11h 33m
Length of Day
10h 31m
Waning Gibbous, 79% of the Moon is Illuminated
Feb 19
Waning Gibbous
Feb 22
Last Quarter
Mar 1
New
Mar 8
First Quarter
Mar 16
Full

Hourly Weather History & Observations

Time (PST) Temp. Windchill Dew Point Humidity Pressure Visibility Wind Dir Wind Speed Gust Speed Precip Events Conditions
12:53 AM 32.0 °F 18.1 °F 25.0 °F 75% 29.73 in 10.0 mi SW 27.6 mph 34.5 mph N/A   Scattered Clouds
1:53 AM 32.0 °F 19.2 °F 24.1 °F 73% 29.75 in 10.0 mi SW 23.0 mph - N/A   Partly Cloudy
2:53 AM 30.9 °F 17.8 °F 24.1 °F 76% 29.77 in 10.0 mi SW 23.0 mph - N/A   Clear
3:53 AM 30.0 °F 16.9 °F 23.0 °F 75% 29.79 in 10.0 mi SW 21.9 mph 33.4 mph N/A   Clear
4:53 AM 28.9 °F 15.8 °F 21.9 °F 75% 29.82 in 10.0 mi SW 20.7 mph - N/A   Partly Cloudy
5:53 AM 28.9 °F 15.4 °F 23.0 °F 78% 29.82 in 10.0 mi SW 21.9 mph - N/A   Mostly Cloudy
6:53 AM 28.0 °F 17.0 °F 23.0 °F 81% 29.85 in 10.0 mi SW 13.8 mph - N/A   Mostly Cloudy
7:53 AM 28.9 °F 16.5 °F 24.1 °F 82% 29.86 in 10.0 mi SW 18.4 mph - N/A   Scattered Clouds
8:53 AM 30.9 °F 18.1 °F 25.0 °F 79% 29.86 in 10.0 mi WSW 21.9 mph - N/A   Scattered Clouds
9:53 AM 34.0 °F 21.8 °F 26.1 °F 73% 29.88 in 10.0 mi WSW 23.0 mph 28.8 mph N/A   Mostly Cloudy
10:53 AM 36.0 °F 23.9 °F 25.0 °F 64% 29.89 in 10.0 mi WSW 25.3 mph - N/A   Mostly Cloudy
11:53 AM 37.9 °F 27.1 °F 26.1 °F 62% 29.91 in 10.0 mi West 23.0 mph - N/A   Scattered Clouds
12:53 PM 39.0 °F 29.6 °F 26.1 °F 60% 29.92 in 10.0 mi West 18.4 mph 27.6 mph N/A   Mostly Cloudy
1:53 PM 39.9 °F 29.7 °F 21.9 °F 49% 29.93 in 10.0 mi West 23.0 mph - N/A   Scattered Clouds
2:53 PM 39.9 °F 29.7 °F 16.0 °F 38% 29.94 in 10.0 mi West 23.0 mph 31.1 mph N/A   Scattered Clouds
3:53 PM 39.0 °F 28.8 °F 17.1 °F 41% 29.96 in 10.0 mi West 21.9 mph - N/A   Partly Cloudy
4:53 PM 37.0 °F 27.4 °F 19.0 °F 48% 29.99 in 10.0 mi WSW 17.3 mph - N/A   Partly Cloudy
5:53 PM 34.0 °F 23.8 °F 21.0 °F 59% 30.01 in 10.0 mi West 16.1 mph - N/A   Partly Cloudy
6:53 PM 33.1 °F 22.6 °F 19.9 °F 59% 30.04 in 10.0 mi West 16.1 mph - N/A   Partly Cloudy
7:53 PM 30.9 °F 21.2 °F 19.9 °F 64% 30.05 in 10.0 mi West 12.7 mph - N/A   Partly Cloudy
8:53 PM 30.9 °F 22.8 °F 19.9 °F 64% 30.06 in 10.0 mi WSW 9.2 mph - N/A   Partly Cloudy
9:53 PM 30.0 °F 20.5 °F 19.9 °F 66% 30.08 in 10.0 mi SW 11.5 mph - N/A   Partly Cloudy
10:53 PM 28.0 °F 18.1 °F 21.9 °F 78% 30.09 in 10.0 mi SW 11.5 mph - N/A   Partly Cloudy
11:53 PM 28.9 °F 18.2 °F 21.9 °F 75% 30.10 in 10.0 mi SSW 13.8 mph - N/A   Mostly Cloudy